AirNav   Air Wisconsin Up To $57,000 Bonus
 
 1099 users online  

52J Lee County Airport-Butters Field
Bishopville, South Carolina, USA

GOING TO BISHOPVILLE?


FAA INFORMATION EFFECTIVE 20 MAY 2021

Location

FAA Identifier: 52J
Lat/Long: 34-14-40.1460N 080-14-09.7210W
34-14.669100N 080-14.162017W
34.2444850,-80.2360336
(estimated)
Elevation: 211 ft. / 64.3 m (surveyed)
Variation: 05W (1985)
From city: 2 miles N of BISHOPVILLE, SC
Time zone: UTC -4 (UTC -5 during Standard Time)
Zip code: 29010

Airport Operations

Airport use: Open to the public
Activation date: 02/1947
Control tower: no
ARTCC: JACKSONVILLE CENTER
FSS: ANDERSON FLIGHT SERVICE STATION
NOTAMs facility: AND (NOTAM-D service available)
Attendance: UNATNDD
Wind indicator: lighted
Segmented circle: yes
Lights: ACTVT MIRL RY 6/24 & PAPI RY 06 AND RY 24 - CTAF.
Beacon: white-green (lighted land airport)
Operates sunset to sunrise.

Airport Communications

CTAF: 122.9
WX AWOS-3 at HVS (11 nm NE): 118.225 (843-339-9625)
WX AWOS-3 at SMS (16 nm SW): 118.075 (803-469-6750)
WX AWOS-3 at CDN (16 nm W): 119.975 (803-424-1979)

Nearby radio navigation aids

VOR radial/distance  VOR name  Freq  Var
CTFr178/24.4CHESTERFIELD VOR/DME108.2003W
FLOr274/28.7FLORENCE VORTAC115.2003W
MMTr064/34.1MC ENTIRE VORTAC113.2008W

 
NDB name  Hdg/Dist  Freq  Var  ID
HARTSVILLE218/11.334107WHVS .... ...- ...
SUMTER029/16.425207WSMS ... -- ...
DARLINGTON241/21.024506WUDG ..- -.. --.
EVANS321/33.042006WCFY -.-. ..-. -.--
BENNETTSVILLE236/33.623008WBES -... . ...
MANNING004/39.438106WMNI -- -. ..

Airport Services

Fuel available: 100LL
100LL:FUEL 24 HR CREDIT CARD SVC AVBL. FOR ASSISTANCE CALL 803-484-3296/229-2679.
Parking: tiedowns
Airframe service: NONE
Powerplant service: NONE
Bottled oxygen: NONE
Bulk oxygen: NONE

Runway Information

Runway 6/24

Dimensions: 3200 x 60 ft. / 975 x 18 m
Surface: asphalt, in good condition
Weight bearing capacity: 
Single wheel: 12.5
Double wheel: 25.0
Runway edge lights: medium intensity
RUNWAY 6  RUNWAY 24
Latitude: 34-14.501500N34-14.836667N
Longitude: 080-14.407500W080-13.916500W
Elevation: 211.0 ft.188.0 ft.
Traffic pattern: leftleft
Markings: basic, in fair conditionbasic, in fair condition
Visual slope indicator: 2-light PAPI on left (3.00 degrees glide path)
PAPI RY 06 AND 24 UNUSBL BYD 6 DEG LEFT OF CNTRLN.
2-light PAPI on left (3.00 degrees glide path)
Touchdown point: yes, no lightsyes, no lights
Obstructions: 25 ft. trees, 572 ft. from runway, 112 ft. left of centerline, 14:1 slope to clear
TREES 19' HIGH 105' LEFT OF CNTLN 142' FROM RWY END
22 ft. trees, 340 ft. from runway, 90 ft. right of centerline, 6:1 slope to clear

Airport Ownership and Management from official FAA records

Ownership: Publicly-owned
Owner: LEE COUNTY
123 S. MAIN ST
BISHOPVILLE, SC 29010
Phone 803-484-5341
Manager: GEORGE ROBERTS
412 MEADOWS LANE
BISHOPVILLE, SC 29010
Phone 803-229-2679

Airport Operational Statistics

Aircraft based on the field: 10
Single engine airplanes: 9
Multi engine airplanes: 1
    
Aircraft operations: avg 58/month *
62% transient general aviation
38% local general aviation
* for 12-month period ending 19 September 2020

Additional Remarks

WILDLIFE ON AND INVOF ARPT.
FOR CD CTC SHAW APCH AT 803-895-4884, WHEN APCH CLSD CTC JACKSONVILLE ARTCC AT 904-845-1592.

Instrument Procedures

There are no published instrument procedures at 52J.

Some nearby airports with instrument procedures:

KHVS - Hartsville Regional Airport (11 nm NE)
KSMS - Sumter Airport (16 nm SW)
KCDN - Woodward Field Airport (16 nm W)
KSSC - Shaw Air Force Base (20 nm SW)
KUDG - Darlington County Airport (21 nm NE)
 
Loc | Ops | Rwys | IFR | FBO | Links
Com | Nav | Svcs | Stats | Notes
Area around 52J (Lee County Airport-Butters Field)
 
Road maps at: MapQuest Bing Google
 
Aerial photo
WARNING: Photo may not be current or correct
Aerial photo of 52J (Lee County Airport-Butters Field)
Photo by King Martin
Photo taken 25-Jan-2016
looking southwest.

Do you have a better or more recent aerial photo of Lee County Airport-Butters Field that you would like to share? If so, please send us your photo.

 
Sectional chart

 
Airport distance calculator
Flying to Lee County Airport-Butters Field? Find the distance to fly.

From to 52J

Sunrise and sunset
Times for 14-Jun-2021
 Local
(UTC-4)
 Zulu
(UTC)
Morning civil twilight05:4009:40
Sunrise06:0910:09
Sunset20:3300:33
Evening civil twilight21:0201:02

Current date and time
Zulu (UTC)  15-Jun-2021 01:51:24
Local (UTC-4)  14-Jun-2021 21:51:24
 
METAR
KHVS 
11nm NE 
150135Z AUTO 26004KT 9SM FEW010 BKN042 OVC047 27/22 A2986 RMK AO2 LTG DSNT SW
KSMS 
16nm SW 
150135Z AUTO 00000KT 10SM VCTS CLR 28/22 A2985 RMK AO2 LTG DSNT W-N
KCDN 
16nm W 
150135Z AUTO 21011KT 10SM VCTS SCT041 SCT048 27/22 A2988 RMK AO2 LTG DSNT ALQDS
KSSC 
20nm SW 
150056Z AUTO 17005KT 10SM CLR 28/22 A2983 RMK AO2 LTG DSNT W-NW SLP101 T02840216 $
KUDG 
21nm NE 
150056Z AUTO 19007KT 10SM CLR 28/23 A2983 RMK AO2 SLP101 T02830228
TAF
KSSC 
20nm SW 
142300Z 1423/1605 19009KT 9999 FEW060 QNH2981INS TEMPO 1501/1503 20010G15KT 8000 -SHRA VCTS FEW055CB BECMG 1505/1506 21006KT 8000 BR SCT050 QNH2981INS BECMG 1511/1512 25006KT 8000 BR BKN040 QNH2984INS BECMG 1513/1514 31006KT 9999 NSW BKN050 QNH2985INS BECMG 1516/1517 35006KT 9999 BKN070 QNH2982INS BECMG 1601/1602 03006KT 8000 -SHRA BKN060 QNH2983INS TX33/1520Z TN22/1509Z LAST NO AMDS AFT 1423 NEXT 1507
KFLO 
25nm E 
141720Z 1418/1518 27005KT P6SM VCSH SCT050 SCT250 FM141900 23007KT P6SM SCT045
NOTAMs
Click for the latest NOTAMs
NOTAMs are issued by the DoD/FAA and will open in a separate window not controlled by AirNav.

 

 
 

FBO, Fuel Providers, and Aircraft Ground Support

  
 Business Name 
 
 Contact 
 
 Services / Description 
 
Fuel Prices
 
Comments
  
Lee County (self-serve fuel) 803-484-3296
no information available

If you are affiliated with Lee County (self-serve fuel) and would like to show here your services, contact info, web link, logo, and more, click here
100LL
SS $4.30 
 Updated 29-Apr-2021
 
   write
SS=Self service
Update Fuel Prices
 

Would you like to see your business listed on this page?

 If your business provides an interesting product or service to pilots, flight crews, aircraft, or users of the Lee County Airport-Butters Field, you should consider listing it here.  To start the listing process, click on the button below
 
Add a business
 

Other Pages about Lee County Airport-Butters Field

Update a link
 
Copyright © AirNav, LLC. All rights reserved. Privacy Policy  Contact